{"data":{"norad_id":59410,"intl_designator":"2024-064N","name":"STARLINK-31412","alt_names":[],"object_type":"PAYLOAD","status":"ACTIVE","operator":null,"country":"US","launch_date":"2024-04-05","launch_site_code":"AFETR","launch_vehicle":null,"mission":null,"orbit_class":"UNKNOWN","rcs_meters":null,"size_class":null,"mass_kg":null,"dimensions":null,"purposes":["comms"],"wikipedia_slug":null,"has_3d_model":false,"image_url":null,"decayed_at":null,"tle_current":{"epoch":"2026-09-21T08:59:37.139424Z","epoch_age_seconds":89868,"freshness":"FRESH","line1":"1 59410U 24064N   26264.37473541 -.00000447  00000+0 -67179-5 0  9990","line2":"2 59410  43.0040  31.0114 0002090 271.2048  88.8564 15.27569167139154","mean_motion":15.27569167,"eccentricity":0.000209,"inclination_deg":43.004,"raan_deg":31.0114,"arg_perigee_deg":271.2048,"mean_anomaly_deg":88.8564,"bstar":-6.7179e-6,"rev_number":13915,"period_min":94.267417221311,"perigee_km":481.64753945687,"apogee_km":484.51552880414,"semimajor_km":6861.2185341305,"source":"CELESTRAK","updated_at":"2026-09-22T09:00:48.915933Z"}}}